Time,TemperatureF,DewpointF,PressureIn,WindDirection,WindDirectionDegrees,WindSpeedMPH,WindSpeedGustMPH,Humidity,HourlyPrecipIn,Conditions,Clouds,dailyrainin,SoftwareType,DateUTC
2013-02-25 00:00:00,29.7,27.9,29.93,NW,315,7.0,9.0,93,0.00,,,0.00,Wunderground v.1.15,2013-02-25 05:00:00,
2013-02-25 00:02:00,29.7,27.9,29.93,NW,317,7.0,16.0,93,0.00,,,0.00,Wunderground v.1.15,2013-02-25 05:02:00,
2013-02-25 00:06:00,29.7,27.9,29.93,NW,304,7.0,16.0,93,0.00,,,0.00,Wunderground v.1.15,2013-02-25 05:06:00,
2013-02-25 00:12:00,29.7,27.9,29.93,NW,311,6.0,16.0,93,0.00,,,0.00,Wunderground v.1.15,2013-02-25 05:12:00,
2013-02-25 00:16:00,29.7,27.9,29.93,NW,304,6.0,16.0,93,0.00,,,0.00,Wunderground v.1.15,2013-02-25 05:16:00,
2013-02-25 00:22:00,29.7,27.9,29.93,WNW,300,7.0,16.0,93,0.00,,,0.00,Wunderground v.1.15,2013-02-25 05:22:00,
2013-02-25 00:28:00,29.7,27.7,29.93,NW,321,8.0,16.0,92,0.00,,,0.00,Wunderground v.1.15,2013-02-25 05:28:00,
2013-02-25 00:34:00,29.7,27.7,29.94,NW,325,7.0,16.0,92,0.00,,,0.00,Wunderground v.1.15,2013-02-25 05:34:00,
2013-02-25 00:40:00,29.7,27.7,29.94,NW,306,7.0,16.0,92,0.00,,,0.00,Wunderground v.1.15,2013-02-25 05:40:00,
2013-02-25 00:46:00,29.7,27.7,29.94,NW,309,8.0,16.0,92,0.00,,,0.00,Wunderground v.1.15,2013-02-25 05:46:00,
2013-02-25 00:51:00,29.7,28.0,29.94,WNW,299,8.0,16.0,92,0.00,,,0.00,weatherlink.com 1.10,2013-02-25 05:51:00,
2013-02-25 00:58:00,29.7,27.7,29.94,NW,319,8.0,16.0,92,0.00,,,0.00,Wunderground v.1.15,2013-02-25 05:58:00,
2013-02-25 01:12:00,29.7,28.0,29.95,NNW,342,9.0,15.0,92,0.00,,,0.00,weatherlink.com 1.10,2013-02-25 06:12:00,
2013-02-25 01:18:00,29.6,27.6,29.95,NW,314,10.0,16.0,92,0.00,,,0.00,Wunderground v.1.15,2013-02-25 06:18:00,
2013-02-25 01:24:00,29.7,27.7,29.95,WNW,303,8.0,16.0,92,0.00,,,0.00,Wunderground v.1.15,2013-02-25 06:24:00,
2013-02-25 01:30:00,29.6,27.6,29.95,NW,318,8.0,16.0,92,0.00,,,0.00,Wunderground v.1.15,2013-02-25 06:30:00,
2013-02-25 01:35:00,29.7,28.0,29.95,NW,323,6.0,12.0,92,0.00,,,0.00,weatherlink.com 1.10,2013-02-25 06:35:00,
2013-02-25 01:42:00,29.7,27.7,29.96,NW,317,8.0,8.0,92,0.00,,,0.00,Wunderground v.1.15,2013-02-25 06:42:00,
2013-02-25 01:48:00,29.7,27.7,29.95,NW,309,8.0,16.0,92,0.00,,,0.00,Wunderground v.1.15,2013-02-25 06:48:00,
2013-02-25 01:54:00,29.8,27.8,29.96,WNW,302,8.0,16.0,92,0.00,,,0.00,Wunderground v.1.15,2013-02-25 06:54:00,
2013-02-25 02:00:00,29.8,27.8,29.96,NW,304,9.0,9.0,92,0.00,,,0.00,Wunderground v.1.15,2013-02-25 07:00:00,
2013-02-25 02:06:00,29.8,27.8,29.97,NW,318,8.0,13.0,92,0.00,,,0.00,Wunderground v.1.15,2013-02-25 07:06:00,
2013-02-25 02:12:00,29.8,27.8,29.97,NW,321,8.0,13.0,92,0.00,,,0.00,Wunderground v.1.15,2013-02-25 07:12:00,
2013-02-25 02:18:00,29.8,27.8,29.97,NW,323,7.0,13.0,92,0.00,,,0.00,Wunderground v.1.15,2013-02-25 07:18:00,
2013-02-25 02:24:00,29.8,27.8,29.97,NW,319,7.0,13.0,92,0.00,,,0.00,Wunderground v.1.15,2013-02-25 07:24:00,
2013-02-25 02:30:00,29.8,27.8,29.97,NW,321,7.0,7.0,92,0.00,,,0.00,Wunderground v.1.15,2013-02-25 07:30:00,
2013-02-25 02:36:00,29.8,27.8,29.97,NW,314,6.0,13.0,92,0.00,,,0.00,Wunderground v.1.15,2013-02-25 07:36:00,
2013-02-25 02:42:00,29.9,27.9,29.97,NNW,330,6.0,13.0,92,0.00,,,0.00,Wunderground v.1.15,2013-02-25 07:42:00,
2013-02-25 02:48:00,29.8,27.8,29.97,NW,326,6.0,13.0,92,0.00,,,0.00,Wunderground v.1.15,2013-02-25 07:48:00,
2013-02-25 02:54:00,29.8,27.8,29.97,WNW,296,6.0,13.0,92,0.00,,,0.00,Wunderground v.1.15,2013-02-25 07:54:00,
2013-02-25 03:00:00,29.8,27.8,29.97,NW,323,7.0,7.0,92,0.00,,,0.00,Wunderground v.1.15,2013-02-25 08:00:00,
2013-02-25 03:06:00,29.8,27.8,29.97,NW,320,6.0,12.0,92,0.00,,,0.00,Wunderground v.1.15,2013-02-25 08:06:00,
2013-02-25 03:12:00,29.8,27.8,29.97,NW,310,6.0,12.0,92,0.00,,,0.00,Wunderground v.1.15,2013-02-25 08:12:00,
2013-02-25 03:18:00,29.8,27.8,29.97,NNW,336,7.0,12.0,92,0.00,,,0.00,Wunderground v.1.15,2013-02-25 08:18:00,
2013-02-25 03:24:00,29.9,27.9,29.97,NW,317,6.0,12.0,92,0.00,,,0.00,Wunderground v.1.15,2013-02-25 08:24:00,
2013-02-25 03:30:00,29.8,27.8,29.98,NW,315,6.0,12.0,92,0.00,,,0.00,Wunderground v.1.15,2013-02-25 08:30:00,
2013-02-25 03:36:00,29.8,27.8,29.97,NW,318,7.0,12.0,92,0.00,,,0.00,Wunderground v.1.15,2013-02-25 08:36:00,
2013-02-25 03:42:00,29.8,27.8,29.98,NW,312,8.0,11.0,92,0.00,,,0.00,Wunderground v.1.15,2013-02-25 08:42:00,
2013-02-25 03:48:00,29.9,27.9,29.98,NNW,333,7.0,12.0,92,0.00,,,0.00,Wunderground v.1.15,2013-02-25 08:48:00,
2013-02-25 03:54:00,29.8,27.8,29.98,NW,304,6.0,12.0,92,0.00,,,0.00,Wunderground v.1.15,2013-02-25 08:54:00,
2013-02-25 04:00:00,29.8,27.8,29.98,NW,320,6.0,7.0,92,0.00,,,0.00,Wunderground v.1.15,2013-02-25 09:00:00,
2013-02-25 04:06:00,29.8,27.8,29.98,NW,312,6.0,15.0,92,0.00,,,0.00,Wunderground v.1.15,2013-02-25 09:06:00,
2013-02-25 04:12:00,29.9,27.9,29.98,NW,315,7.0,9.0,92,0.00,,,0.00,Wunderground v.1.15,2013-02-25 09:12:00,
2013-02-25 04:18:00,29.9,27.9,29.99,NNW,338,6.0,15.0,92,0.00,,,0.00,Wunderground v.1.15,2013-02-25 09:18:00,
2013-02-25 04:24:00,29.8,27.8,29.99,NW,317,7.0,15.0,92,0.00,,,0.00,Wunderground v.1.15,2013-02-25 09:24:00,
2013-02-25 04:30:00,29.8,27.8,29.99,WNW,293,7.0,7.0,92,0.00,,,0.00,Wunderground v.1.15,2013-02-25 09:30:00,
2013-02-25 04:36:00,29.8,27.8,29.99,NNW,329,6.0,15.0,92,0.00,,,0.00,Wunderground v.1.15,2013-02-25 09:36:00,
2013-02-25 04:42:00,29.9,27.9,29.99,North,360,5.0,15.0,92,0.00,,,0.00,Wunderground v.1.15,2013-02-25 09:42:00,
2013-02-25 04:48:00,29.8,27.8,30.00,NW,311,5.0,15.0,92,0.00,,,0.00,Wunderground v.1.15,2013-02-25 09:48:00,
2013-02-25 04:54:00,29.8,27.8,30.00,NNW,329,5.0,15.0,92,0.00,,,0.00,Wunderground v.1.15,2013-02-25 09:54:00,
2013-02-25 05:00:00,29.8,27.8,30.00,NNW,344,4.0,4.0,92,0.00,,,0.00,Wunderground v.1.15,2013-02-25 10:00:00,
2013-02-25 05:06:00,29.8,27.8,30.00,NW,315,4.0,12.0,92,0.00,,,0.00,Wunderground v.1.15,2013-02-25 10:06:00,
2013-02-25 05:12:00,29.8,27.8,30.00,NW,304,5.0,12.0,92,0.00,,,0.00,Wunderground v.1.15,2013-02-25 10:12:00,
2013-02-25 05:18:00,29.8,27.8,30.01,NW,323,6.0,12.0,92,0.00,,,0.00,Wunderground v.1.15,2013-02-25 10:18:00,
2013-02-25 05:23:00,29.8,28.0,30.01,NNW,338,5.0,11.0,93,0.00,,,0.00,weatherlink.com 1.10,2013-02-25 10:23:00,
2013-02-25 05:30:00,29.8,28.0,30.01,NNW,344,5.0,5.0,93,0.00,,,0.00,Wunderground v.1.15,2013-02-25 10:30:00,
2013-02-25 05:36:00,29.7,27.9,30.01,NNW,327,4.0,12.0,93,0.00,,,0.00,Wunderground v.1.15,2013-02-25 10:36:00,
2013-02-25 05:42:00,29.8,28.0,30.01,NW,308,5.0,12.0,93,0.00,,,0.00,Wunderground v.1.15,2013-02-25 10:42:00,
2013-02-25 05:48:00,29.8,28.0,30.01,NW,305,6.0,12.0,93,0.00,,,0.00,Wunderground v.1.15,2013-02-25 10:48:00,
2013-02-25 05:53:00,29.8,28.0,30.02,NW,306,7.0,11.0,93,0.00,,,0.00,weatherlink.com 1.10,2013-02-25 10:53:00,
2013-02-25 06:00:00,29.8,27.8,30.02,NW,313,7.0,8.0,92,0.00,,,0.00,Wunderground v.1.15,2013-02-25 11:00:00,
2013-02-25 06:06:00,29.8,28.0,30.02,NW,316,7.0,11.0,93,0.00,,,0.00,Wunderground v.1.15,2013-02-25 11:06:00,
2013-02-25 06:12:00,29.8,28.0,30.02,NW,325,6.0,11.0,93,0.00,,,0.00,Wunderground v.1.15,2013-02-25 11:12:00,
2013-02-25 06:18:00,29.8,28.0,30.02,NW,323,6.0,11.0,93,0.00,,,0.00,Wunderground v.1.15,2013-02-25 11:18:00,
2013-02-25 06:23:00,29.8,28.0,30.02,NW,306,6.0,9.0,93,0.00,,,0.00,weatherlink.com 1.10,2013-02-25 11:23:00,
2013-02-25 06:30:00,29.8,28.0,30.02,NNW,327,6.0,11.0,93,0.00,,,0.00,Wunderground v.1.15,2013-02-25 11:30:00,
2013-02-25 06:36:00,29.8,28.0,30.03,NW,321,6.0,11.0,93,0.00,,,0.00,Wunderground v.1.15,2013-02-25 11:36:00,
2013-02-25 06:42:00,29.7,27.9,30.03,WNW,297,5.0,11.0,93,0.00,,,0.00,Wunderground v.1.15,2013-02-25 11:42:00,
2013-02-25 06:48:00,29.8,28.0,30.03,NW,315,5.0,11.0,93,0.00,,,0.00,Wunderground v.1.15,2013-02-25 11:48:00,
2013-02-25 06:54:00,29.7,27.9,30.03,NNW,328,6.0,11.0,93,0.00,,,0.00,Wunderground v.1.15,2013-02-25 11:54:00,
2013-02-25 07:00:00,29.7,27.9,30.03,NW,317,6.0,6.0,93,0.00,,,0.00,Wunderground v.1.15,2013-02-25 12:00:00,
2013-02-25 07:06:00,29.7,28.2,30.03,NW,320,5.0,9.0,94,0.00,,,0.00,Wunderground v.1.15,2013-02-25 12:06:00,
2013-02-25 07:12:00,29.7,28.2,30.03,NW,311,4.0,9.0,94,0.00,,,0.00,Wunderground v.1.15,2013-02-25 12:12:00,
2013-02-25 07:18:00,29.8,28.3,30.04,NW,317,5.0,9.0,94,0.00,,,0.00,Wunderground v.1.15,2013-02-25 12:18:00,
2013-02-25 07:24:00,29.8,28.3,30.03,NNW,327,5.0,9.0,94,0.00,,,0.00,Wunderground v.1.15,2013-02-25 12:24:00,
2013-02-25 07:30:00,29.8,28.3,30.04,NW,319,6.0,6.0,94,0.00,,,0.00,Wunderground v.1.15,2013-02-25 12:30:00,
2013-02-25 07:36:00,29.8,28.3,30.04,NW,304,6.0,9.0,94,0.00,,,0.00,Wunderground v.1.15,2013-02-25 12:36:00,
2013-02-25 07:42:00,29.8,28.3,30.04,NW,309,6.0,9.0,94,0.00,,,0.00,Wunderground v.1.15,2013-02-25 12:42:00,
2013-02-25 07:48:00,29.9,28.4,30.05,NW,319,6.0,9.0,94,0.00,,,0.00,Wunderground v.1.15,2013-02-25 12:48:00,
2013-02-25 07:54:00,29.9,28.4,30.05,NW,321,5.0,9.0,94,0.00,,,0.00,Wunderground v.1.15,2013-02-25 12:54:00,
2013-02-25 08:00:00,29.9,28.4,30.05,NW,313,3.0,3.0,94,0.00,,,0.00,Wunderground v.1.15,2013-02-25 13:00:00,
2013-02-25 08:06:00,30.0,28.5,30.05,NW,316,3.0,8.0,94,0.00,,,0.00,Wunderground v.1.15,2013-02-25 13:06:00,
2013-02-25 08:12:00,30.0,28.5,30.05,NNW,330,3.0,8.0,94,0.00,,,0.00,Wunderground v.1.15,2013-02-25 13:12:00,
2013-02-25 08:18:00,30.1,28.6,30.05,NW,308,3.0,8.0,94,0.00,,,0.00,Wunderground v.1.15,2013-02-25 13:18:00,
2013-02-25 08:24:00,30.2,28.7,30.05,NNW,328,4.0,8.0,94,0.00,,,0.00,Wunderground v.1.15,2013-02-25 13:24:00,
2013-02-25 08:30:00,30.3,28.8,30.06,NW,325,4.0,4.0,94,0.00,,,0.00,Wunderground v.1.15,2013-02-25 13:30:00,
2013-02-25 08:36:00,30.4,28.9,30.06,WNW,302,4.0,8.0,94,0.00,,,0.00,Wunderground v.1.15,2013-02-25 13:36:00,
2013-02-25 08:42:00,30.5,29.0,30.06,NW,313,3.0,8.0,94,0.00,,,0.00,Wunderground v.1.15,2013-02-25 13:42:00,
2013-02-25 08:48:00,30.6,29.1,30.06,NNW,333,3.0,8.0,94,0.00,,,0.00,Wunderground v.1.15,2013-02-25 13:48:00,
2013-02-25 08:54:00,30.7,28.9,30.06,NW,316,3.0,8.0,93,0.00,,,0.00,Wunderground v.1.15,2013-02-25 13:54:00,
2013-02-25 09:00:00,30.7,28.9,30.06,NW,311,3.0,5.0,93,0.00,,,0.00,Wunderground v.1.15,2013-02-25 14:00:00,
2013-02-25 09:08:00,30.8,29.0,30.07,NW,317,5.0,7.0,93,0.00,,,0.00,Wunderground v.1.15,2013-02-25 14:08:00,
2013-02-25 09:14:00,30.9,29.1,30.07,NW,315,5.0,6.0,93,0.00,,,0.00,Wunderground v.1.15,2013-02-25 14:14:00,
2013-02-25 09:20:00,31.0,29.2,30.07,NNW,327,5.0,6.0,93,0.00,,,0.00,Wunderground v.1.15,2013-02-25 14:20:00,
2013-02-25 09:26:00,31.1,29.3,30.07,NNW,327,5.0,6.0,93,0.00,,,0.00,Wunderground v.1.15,2013-02-25 14:26:00,
2013-02-25 09:32:00,31.2,29.4,30.07,NW,319,5.0,6.0,93,0.00,,,0.00,Wunderground v.1.15,2013-02-25 14:32:00,
2013-02-25 09:38:00,31.4,29.6,30.07,NW,322,4.0,6.0,93,0.00,,,0.00,Wunderground v.1.15,2013-02-25 14:38:00,
2013-02-25 09:44:00,31.4,29.3,30.08,NW,313,5.0,7.0,92,0.00,,,0.00,Wunderground v.1.15,2013-02-25 14:44:00,
2013-02-25 09:50:00,31.6,29.5,30.08,NW,311,5.0,5.0,92,0.00,,,0.00,Wunderground v.1.15,2013-02-25 14:50:00,
2013-02-25 09:55:00,31.7,30.0,30.08,NW,322,5.0,8.0,92,0.00,,,0.00,weatherlink.com 1.10,2013-02-25 14:55:00,
2013-02-25 10:00:00,31.9,29.8,30.08,NW,315,4.0,6.0,92,0.00,,,0.00,Wunderground v.1.15,2013-02-25 15:00:00,
2013-02-25 10:06:00,32.0,29.9,30.08,NW,311,4.0,8.0,92,0.00,,,0.00,Wunderground v.1.15,2013-02-25 15:06:00,
2013-02-25 10:11:00,32.0,30.0,30.08,NW,316,6.0,8.0,91,0.00,,,0.00,weatherlink.com 1.10,2013-02-25 15:11:00,
2013-02-25 10:18:00,32.2,29.9,30.08,NW,310,5.0,8.0,91,0.00,,,0.00,Wunderground v.1.15,2013-02-25 15:18:00,
2013-02-25 10:24:00,32.5,30.2,30.08,NNW,339,3.0,8.0,91,0.00,,,0.00,Wunderground v.1.15,2013-02-25 15:24:00,
2013-02-25 10:30:00,32.7,30.1,30.08,NNW,338,3.0,3.0,90,0.00,,,0.00,Wunderground v.1.15,2013-02-25 15:30:00,
2013-02-25 10:36:00,32.8,30.2,30.08,NW,308,4.0,8.0,90,0.00,,,0.00,Wunderground v.1.15,2013-02-25 15:36:00,
2013-02-25 10:42:00,32.7,29.8,30.08,North,360,4.0,8.0,89,0.00,,,0.00,Wunderground v.1.15,2013-02-25 15:42:00,
2013-02-25 10:48:00,32.8,29.9,30.08,NNW,330,4.0,8.0,89,0.00,,,0.00,Wunderground v.1.15,2013-02-25 15:48:00,
2013-02-25 10:54:00,33.2,30.3,30.08,NNW,332,3.0,8.0,89,0.00,,,0.00,Wunderground v.1.15,2013-02-25 15:54:00,
2013-02-25 11:00:00,33.4,30.2,30.08,North,355,3.0,3.0,88,0.00,,,0.00,Wunderground v.1.15,2013-02-25 16:00:00,
2013-02-25 11:06:00,33.4,29.9,30.08,NNW,348,3.0,9.0,87,0.00,,,0.00,Wunderground v.1.15,2013-02-25 16:06:00,
2013-02-25 11:12:00,33.6,29.9,30.08,NW,306,3.0,9.0,86,0.00,,,0.00,Wunderground v.1.15,2013-02-25 16:12:00,
2013-02-25 11:18:00,33.6,29.6,30.08,North,351,4.0,9.0,85,0.00,,,0.00,Wunderground v.1.15,2013-02-25 16:18:00,
2013-02-25 11:24:00,33.8,29.5,30.08,NW,311,4.0,9.0,84,0.00,,,0.00,Wunderground v.1.15,2013-02-25 16:24:00,
2013-02-25 11:30:00,33.7,29.1,30.08,NNW,348,5.0,5.0,83,0.00,,,0.00,Wunderground v.1.15,2013-02-25 16:30:00,
2013-02-25 11:36:00,33.9,29.6,30.09,NNE,20,5.0,9.0,84,0.00,,,0.00,Wunderground v.1.15,2013-02-25 16:36:00,
2013-02-25 11:41:00,34.2,30.0,30.09,NW,305,5.0,6.0,83,0.00,,,0.00,weatherlink.com 1.10,2013-02-25 16:41:00,
2013-02-25 11:48:00,34.2,29.6,30.09,NNW,347,4.0,9.0,83,0.00,,,0.00,Wunderground v.1.15,2013-02-25 16:48:00,
2013-02-25 11:54:00,34.3,29.4,30.09,NNW,340,5.0,9.0,82,0.00,,,0.00,Wunderground v.1.15,2013-02-25 16:54:00,
2013-02-25 12:00:00,34.4,29.8,30.09,NW,313,4.0,5.0,83,0.00,,,0.00,Wunderground v.1.15,2013-02-25 17:00:00,
2013-02-25 12:08:00,34.7,29.8,30.09,NNW,337,4.0,8.0,82,0.00,,,0.00,Wunderground v.1.15,2013-02-25 17:08:00,
2013-02-25 12:14:00,34.5,29.6,30.09,NNW,334,5.0,8.0,82,0.00,,,0.00,Wunderground v.1.15,2013-02-25 17:14:00,
2013-02-25 12:20:00,34.4,29.5,30.09,NW,325,6.0,6.0,82,0.00,,,0.00,Wunderground v.1.15,2013-02-25 17:20:00,
2013-02-25 12:26:00,34.5,29.6,30.09,NW,317,5.0,8.0,82,0.00,,,0.00,Wunderground v.1.15,2013-02-25 17:26:00,
2013-02-25 12:32:00,34.4,29.2,30.10,NNW,335,5.0,8.0,81,0.00,,,0.00,Wunderground v.1.15,2013-02-25 17:32:00,
2013-02-25 12:38:00,34.5,29.3,30.10,NW,306,5.0,8.0,81,0.00,,,0.00,Wunderground v.1.15,2013-02-25 17:38:00,
2013-02-25 12:43:00,34.6,29.0,30.10,NW,314,4.0,8.0,80,0.00,,,0.00,weatherlink.com 1.10,2013-02-25 17:43:00,
2013-02-25 12:50:00,34.7,29.2,30.10,NW,305,4.0,8.0,80,0.00,,,0.00,Wunderground v.1.15,2013-02-25 17:50:00,
2013-02-25 12:56:00,34.6,29.1,30.10,NNW,327,5.0,8.0,80,0.00,,,0.00,Wunderground v.1.15,2013-02-25 17:56:00,
2013-02-25 13:02:00,34.6,28.4,30.10,North,355,6.0,9.0,78,0.00,,,0.00,Wunderground v.1.15,2013-02-25 18:02:00,
2013-02-25 13:08:00,34.6,29.1,30.10,WNW,301,5.0,9.0,80,0.00,,,0.00,Wunderground v.1.15,2013-02-25 18:08:00,
2013-02-25 13:14:00,34.8,29.3,30.09,North,351,4.0,9.0,80,0.00,,,0.00,Wunderground v.1.15,2013-02-25 18:14:00,
2013-02-25 13:20:00,35.0,29.5,30.09,NW,320,4.0,9.0,80,0.00,,,0.00,Wunderground v.1.15,2013-02-25 18:20:00,
2013-02-25 13:26:00,34.9,29.4,30.09,NW,313,4.0,9.0,80,0.00,,,0.00,Wunderground v.1.15,2013-02-25 18:26:00,
2013-02-25 13:32:00,35.0,29.5,30.09,NW,313,4.0,9.0,80,0.00,,,0.00,Wunderground v.1.15,2013-02-25 18:32:00,
2013-02-25 13:38:00,34.8,29.3,30.09,NW,321,5.0,9.0,80,0.00,,,0.00,Wunderground v.1.15,2013-02-25 18:38:00,
2013-02-25 13:43:00,34.8,30.0,30.09,NW,315,5.0,8.0,81,0.00,,,0.00,weatherlink.com 1.10,2013-02-25 18:43:00,
2013-02-25 13:50:00,34.6,29.4,30.09,NW,319,5.0,9.0,81,0.00,,,0.00,Wunderground v.1.15,2013-02-25 18:50:00,
2013-02-25 13:56:00,34.6,29.4,30.09,North,350,5.0,9.0,81,0.00,,,0.00,Wunderground v.1.15,2013-02-25 18:56:00,
2013-02-25 14:02:00,34.6,29.1,30.10,WNW,300,5.0,10.0,80,0.00,,,0.00,Wunderground v.1.15,2013-02-25 19:02:00,
2013-02-25 14:08:00,34.7,29.2,30.10,NW,311,5.0,10.0,80,0.00,,,0.00,Wunderground v.1.15,2013-02-25 19:08:00,
2013-02-25 14:14:00,34.6,29.4,30.10,NW,321,4.0,10.0,81,0.00,,,0.00,Wunderground v.1.15,2013-02-25 19:14:00,
2013-02-25 14:20:00,34.8,29.6,30.10,North,355,4.0,4.0,81,0.00,,,0.00,Wunderground v.1.15,2013-02-25 19:20:00,
2013-02-25 14:26:00,34.7,29.8,30.09,NNW,337,3.0,10.0,82,0.00,,,0.00,Wunderground v.1.15,2013-02-25 19:26:00,
2013-02-25 14:32:00,34.6,30.0,30.09,NNW,344,3.0,10.0,83,0.00,,,0.00,Wunderground v.1.15,2013-02-25 19:32:00,
2013-02-25 14:38:00,34.5,29.6,30.09,NNW,348,4.0,10.0,82,0.00,,,0.00,Wunderground v.1.15,2013-02-25 19:38:00,
2013-02-25 14:44:00,34.6,29.4,30.09,NNW,338,4.0,10.0,81,0.00,,,0.00,Wunderground v.1.15,2013-02-25 19:44:00,
2013-02-25 14:50:00,34.6,29.1,30.09,North,355,4.0,4.0,80,0.00,,,0.00,Wunderground v.1.15,2013-02-25 19:50:00,
2013-02-25 14:56:00,34.6,29.1,30.09,North,360,3.0,10.0,80,0.00,,,0.00,Wunderground v.1.15,2013-02-25 19:56:00,
2013-02-25 15:02:00,34.5,28.7,30.08,North,355,4.0,5.0,79,0.00,,,0.00,Wunderground v.1.15,2013-02-25 20:02:00,
2013-02-25 15:08:00,34.5,28.3,30.08,North,360,3.0,6.0,78,0.00,,,0.00,Wunderground v.1.15,2013-02-25 20:08:00,
2013-02-25 15:14:00,34.5,28.3,30.08,North,355,3.0,6.0,78,0.00,,,0.00,Wunderground v.1.15,2013-02-25 20:14:00,
2013-02-25 15:20:00,34.4,28.2,30.08,NNW,333,3.0,3.0,78,0.00,,,0.00,Wunderground v.1.15,2013-02-25 20:20:00,
2013-02-25 15:26:00,34.6,28.8,30.09,NW,320,3.0,6.0,79,0.00,,,0.00,Wunderground v.1.15,2013-02-25 20:26:00,
2013-02-25 15:32:00,34.5,28.7,30.08,NNW,335,3.0,6.0,79,0.00,,,0.00,Wunderground v.1.15,2013-02-25 20:32:00,
2013-02-25 15:38:00,34.5,28.3,30.08,NNW,346,3.0,6.0,78,0.00,,,0.00,Wunderground v.1.15,2013-02-25 20:38:00,
2013-02-25 15:44:00,34.5,28.7,30.08,NNW,343,3.0,6.0,79,0.00,,,0.00,Wunderground v.1.15,2013-02-25 20:44:00,
2013-02-25 15:50:00,34.5,28.3,30.08,NNW,348,3.0,6.0,78,0.00,,,0.00,Wunderground v.1.15,2013-02-25 20:50:00,
2013-02-25 15:56:00,34.5,28.3,30.09,NNW,335,3.0,6.0,78,0.00,,,0.00,Wunderground v.1.15,2013-02-25 20:56:00,
2013-02-25 16:02:00,34.5,28.3,30.08,NNW,343,3.0,5.0,78,0.00,,,0.00,Wunderground v.1.15,2013-02-25 21:02:00,
2013-02-25 16:08:00,34.5,28.3,30.08,NW,317,3.0,5.0,78,0.00,,,0.00,Wunderground v.1.15,2013-02-25 21:08:00,
2013-02-25 16:14:00,34.5,28.3,30.09,NNW,333,3.0,5.0,78,0.00,,,0.00,Wunderground v.1.15,2013-02-25 21:14:00,
2013-02-25 16:20:00,34.4,28.2,30.09,NNW,329,3.0,3.0,78,0.00,,,0.00,Wunderground v.1.15,2013-02-25 21:20:00,
2013-02-25 16:26:00,34.4,28.2,30.09,NNW,336,3.0,5.0,78,0.00,,,0.00,Wunderground v.1.15,2013-02-25 21:26:00,
2013-02-25 16:32:00,34.4,28.6,30.09,NNW,331,2.0,5.0,79,0.00,,,0.00,Wunderground v.1.15,2013-02-25 21:32:00,
2013-02-25 16:38:00,34.3,28.2,30.09,North,355,2.0,5.0,78,0.00,,,0.00,Wunderground v.1.15,2013-02-25 21:38:00,
2013-02-25 16:44:00,34.2,28.4,30.09,NNW,336,2.0,5.0,79,0.00,,,0.00,Wunderground v.1.15,2013-02-25 21:44:00,
2013-02-25 16:50:00,34.2,28.1,30.09,NNW,336,2.0,5.0,78,0.00,,,0.00,Wunderground v.1.15,2013-02-25 21:50:00,
2013-02-25 16:56:00,34.1,27.6,30.10,NNW,335,2.0,5.0,77,0.00,,,0.00,Wunderground v.1.15,2013-02-25 21:56:00,
2013-02-25 17:02:00,34.1,27.6,30.09,NNW,346,2.0,5.0,77,0.00,,,0.00,Wunderground v.1.15,2013-02-25 22:02:00,
2013-02-25 17:08:00,34.0,27.5,30.09,North,350,2.0,5.0,77,0.00,,,0.00,Wunderground v.1.15,2013-02-25 22:08:00,
2013-02-25 17:14:00,34.0,27.5,30.10,North,350,2.0,5.0,77,0.00,,,0.00,Wunderground v.1.15,2013-02-25 22:14:00,
2013-02-25 17:20:00,33.9,27.4,30.10,NNW,342,2.0,2.0,77,0.00,,,0.00,Wunderground v.1.15,2013-02-25 22:20:00,
2013-02-25 17:26:00,33.9,27.8,30.11,NNW,342,1.0,5.0,78,0.00,,,0.00,Wunderground v.1.15,2013-02-25 22:26:00,
2013-02-25 17:32:00,33.9,27.8,30.11,NNW,342,0.0,5.0,78,0.00,,,0.00,Wunderground v.1.15,2013-02-25 22:32:00,
2013-02-25 17:38:00,34.2,28.7,30.11,NNW,342,0.0,5.0,80,0.00,,,0.00,Wunderground v.1.15,2013-02-25 22:38:00,
2013-02-25 17:44:00,34.2,28.4,30.11,NNW,342,0.0,5.0,79,0.00,,,0.00,Wunderground v.1.15,2013-02-25 22:44:00,
2013-02-25 17:50:00,34.2,27.7,30.10,NNW,342,0.0,5.0,77,0.00,,,0.00,Wunderground v.1.15,2013-02-25 22:50:00,
2013-02-25 17:56:00,34.0,27.2,30.10,NNW,342,0.0,5.0,76,0.00,,,0.00,Wunderground v.1.15,2013-02-25 22:56:00,
2013-02-25 18:02:00,33.9,27.1,30.10,NNW,342,0.0,0.0,76,0.00,,,0.00,Wunderground v.1.15,2013-02-25 23:02:00,
2013-02-25 18:08:00,33.8,26.7,30.10,NNW,342,0.0,0.0,75,0.00,,,0.00,Wunderground v.1.15,2013-02-25 23:08:00,
2013-02-25 18:14:00,33.7,26.9,30.10,NNW,342,0.0,0.0,76,0.00,,,0.00,Wunderground v.1.15,2013-02-25 23:14:00,
2013-02-25 18:20:00,33.6,26.5,30.10,NNW,342,0.0,0.0,75,0.00,,,0.00,Wunderground v.1.15,2013-02-25 23:20:00,
2013-02-25 18:26:00,33.6,26.8,30.10,NNW,342,0.0,0.0,76,0.00,,,0.00,Wunderground v.1.15,2013-02-25 23:26:00,
2013-02-25 18:32:00,33.6,26.5,30.10,NNW,342,0.0,0.0,75,0.00,,,0.00,Wunderground v.1.15,2013-02-25 23:32:00,
2013-02-25 18:38:00,33.7,26.6,30.10,NNW,342,0.0,0.0,75,0.00,,,0.00,Wunderground v.1.15,2013-02-25 23:38:00,
2013-02-25 18:44:00,33.7,26.6,30.11,NNW,342,0.0,0.0,75,0.00,,,0.00,Wunderground v.1.15,2013-02-25 23:44:00,
2013-02-25 18:50:00,33.7,26.9,30.11,NNW,342,0.0,0.0,76,0.00,,,0.00,Wunderground v.1.15,2013-02-25 23:50:00,
2013-02-25 18:56:00,33.7,27.6,30.11,NNW,342,0.0,0.0,78,0.00,,,0.00,Wunderground v.1.15,2013-02-25 23:56:00,
2013-02-25 19:02:00,33.5,27.4,30.11,NNW,342,0.0,0.0,78,0.00,,,0.00,Wunderground v.1.15,2013-02-26 00:02:00,
2013-02-25 19:08:00,33.3,26.9,30.10,NNW,342,0.0,0.0,77,0.00,,,0.00,Wunderground v.1.15,2013-02-26 00:08:00,
2013-02-25 19:14:00,33.2,26.8,30.11,NNW,342,0.0,0.0,77,0.00,,,0.00,Wunderground v.1.15,2013-02-26 00:14:00,
2013-02-25 19:20:00,33.2,26.5,30.11,NNW,342,0.0,0.0,76,0.00,,,0.00,Wunderground v.1.15,2013-02-26 00:20:00,
2013-02-25 19:26:00,33.3,26.2,30.11,NNW,342,0.0,0.0,75,0.00,,,0.00,Wunderground v.1.15,2013-02-26 00:26:00,
2013-02-25 19:31:00,33.3,26.0,30.11,NNW,342,0.0,0.0,73,0.00,,,0.00,weatherlink.com 1.10,2013-02-26 00:31:00,
2013-02-25 19:38:00,33.3,25.9,30.11,NNW,342,0.0,0.0,74,0.00,,,0.00,Wunderground v.1.15,2013-02-26 00:38:00,
2013-02-25 19:44:00,33.4,27.0,30.11,NNW,342,0.0,0.0,77,0.00,,,0.00,Wunderground v.1.15,2013-02-26 00:44:00,
2013-02-25 19:50:00,33.2,27.1,30.11,North,5,0.0,0.0,78,0.00,,,0.00,Wunderground v.1.15,2013-02-26 00:50:00,
2013-02-25 19:56:00,33.0,27.2,30.11,North,5,0.0,0.0,79,0.00,,,0.00,Wunderground v.1.15,2013-02-26 00:56:00,
2013-02-25 20:03:00,32.8,27.0,30.11,North,5,1.0,2.0,79,0.00,,,0.00,weatherlink.com 1.10,2013-02-26 01:03:00,
2013-02-25 20:10:00,32.6,27.1,30.11,North,5,1.0,3.0,80,0.00,,,0.00,Wunderground v.1.15,2013-02-26 01:10:00,
2013-02-25 20:16:00,32.4,26.9,30.11,NNE,22,1.0,3.0,80,0.00,,,0.00,Wunderground v.1.15,2013-02-26 01:16:00,
2013-02-25 20:22:00,32.2,27.0,30.11,NNE,23,1.0,3.0,81,0.00,,,0.00,Wunderground v.1.15,2013-02-26 01:22:00,
2013-02-25 20:28:00,32.0,26.8,30.11,NNE,13,0.0,3.0,81,0.00,,,0.00,Wunderground v.1.15,2013-02-26 01:28:00,
2013-02-25 20:34:00,31.7,26.8,30.11,NNE,13,0.0,3.0,82,0.00,,,0.00,Wunderground v.1.15,2013-02-26 01:34:00,
2013-02-25 20:40:00,31.3,26.7,30.11,NNE,13,0.0,3.0,83,0.00,,,0.00,Wunderground v.1.15,2013-02-26 01:40:00,
2013-02-25 20:46:00,31.2,26.6,30.11,NNE,13,0.0,3.0,83,0.00,,,0.00,Wunderground v.1.15,2013-02-26 01:46:00,
2013-02-25 20:52:00,31.0,26.7,30.12,NNE,13,0.0,3.0,84,0.00,,,0.00,Wunderground v.1.15,2013-02-26 01:52:00,
2013-02-25 20:58:00,30.8,26.5,30.11,NNE,13,0.0,3.0,84,0.00,,,0.00,Wunderground v.1.15,2013-02-26 01:58:00,
2013-02-25 21:04:00,30.7,26.4,30.11,NNE,13,0.0,2.0,84,0.00,,,0.00,Wunderground v.1.15,2013-02-26 02:04:00,
2013-02-25 21:10:00,30.5,26.5,30.11,NNE,13,0.0,2.0,85,0.00,,,0.00,Wunderground v.1.15,2013-02-26 02:10:00,
2013-02-25 21:16:00,30.4,26.4,30.11,NNE,13,0.0,2.0,85,0.00,,,0.00,Wunderground v.1.15,2013-02-26 02:16:00,
2013-02-25 21:22:00,30.3,26.6,30.11,NNE,13,0.0,2.0,86,0.00,,,0.00,Wunderground v.1.15,2013-02-26 02:22:00,
2013-02-25 21:28:00,30.2,26.5,30.11,NNE,13,0.0,2.0,86,0.00,,,0.00,Wunderground v.1.15,2013-02-26 02:28:00,
2013-02-25 21:34:00,30.1,26.4,30.11,NNE,13,0.0,2.0,86,0.00,,,0.00,Wunderground v.1.15,2013-02-26 02:34:00,
2013-02-25 21:40:00,30.1,26.4,30.12,NNE,13,0.0,2.0,86,0.00,,,0.00,Wunderground v.1.15,2013-02-26 02:40:00,
2013-02-25 21:46:00,30.1,26.4,30.12,NNE,13,0.0,2.0,86,0.00,,,0.00,Wunderground v.1.15,2013-02-26 02:46:00,
2013-02-25 21:52:00,30.1,26.4,30.12,NNE,13,0.0,2.0,86,0.00,,,0.00,Wunderground v.1.15,2013-02-26 02:52:00,
2013-02-25 21:58:00,30.1,26.4,30.12,NNE,13,0.0,2.0,86,0.00,,,0.00,Wunderground v.1.15,2013-02-26 02:58:00,
2013-02-25 22:04:00,30.1,26.0,30.12,NNE,13,0.0,0.0,86,0.00,,,0.00,weatherlink.com 1.10,2013-02-26 03:04:00,
2013-02-25 22:10:00,30.1,26.4,30.12,NNE,13,0.0,0.0,86,0.00,,,0.00,Wunderground v.1.15,2013-02-26 03:10:00,
2013-02-25 22:16:00,29.9,26.2,30.12,NNE,13,0.0,0.0,86,0.00,,,0.00,Wunderground v.1.15,2013-02-26 03:16:00,
2013-02-25 22:22:00,29.9,26.2,30.12,NNE,13,0.0,0.0,86,0.00,,,0.00,Wunderground v.1.15,2013-02-26 03:22:00,
2013-02-25 22:28:00,29.7,26.0,30.12,NNE,13,0.0,0.0,86,0.00,,,0.00,Wunderground v.1.15,2013-02-26 03:28:00,
2013-02-25 22:33:00,29.6,26.0,30.12,NNE,13,0.0,0.0,87,0.00,,,0.00,weatherlink.com 1.10,2013-02-26 03:33:00,
2013-02-25 22:38:00,29.5,26.1,30.12,NNE,13,0.0,0.0,87,0.00,,,0.00,Wunderground v.1.15,2013-02-26 03:38:00,
2013-02-25 22:44:00,29.3,25.9,30.12,NNE,13,0.0,0.0,87,0.00,,,0.00,Wunderground v.1.15,2013-02-26 03:44:00,
2013-02-25 22:50:00,29.3,26.2,30.12,NNE,13,0.0,0.0,88,0.00,,,0.00,Wunderground v.1.15,2013-02-26 03:50:00,
2013-02-25 22:56:00,29.3,25.9,30.11,NNE,24,0.0,1.0,87,0.00,,,0.00,Wunderground v.1.15,2013-02-26 03:56:00,
2013-02-25 23:02:00,29.3,26.2,30.12,NNE,24,0.0,2.0,88,0.00,,,0.00,Wunderground v.1.15,2013-02-26 04:02:00,
2013-02-25 23:08:00,29.3,26.2,30.12,NNE,24,0.0,2.0,88,0.00,,,0.00,Wunderground v.1.15,2013-02-26 04:08:00,
2013-02-25 23:14:00,29.2,25.8,30.11,NNE,27,0.0,2.0,87,0.00,,,0.00,Wunderground v.1.15,2013-02-26 04:14:00,
2013-02-25 23:19:00,29.1,26.0,30.12,NNE,33,0.0,3.0,87,0.00,,,0.00,weatherlink.com 1.10,2013-02-26 04:19:00,
2013-02-25 23:24:00,29.0,25.6,30.12,NNE,33,0.0,2.0,87,0.00,,,0.00,Wunderground v.1.15,2013-02-26 04:24:00,
2013-02-25 23:30:00,29.0,25.6,30.11,NNE,33,0.0,2.0,87,0.00,,,0.00,Wunderground v.1.15,2013-02-26 04:30:00,
2013-02-25 23:36:00,28.9,25.5,30.11,NNE,33,0.0,2.0,87,0.00,,,0.00,Wunderground v.1.15,2013-02-26 04:36:00,
2013-02-25 23:42:00,28.9,25.5,30.11,NNE,33,0.0,2.0,87,0.00,,,0.00,Wunderground v.1.15,2013-02-26 04:42:00,
2013-02-25 23:48:00,28.8,25.4,30.10,NNE,33,0.0,2.0,87,0.00,,,0.00,Wunderground v.1.15,2013-02-26 04:48:00,
2013-02-25 23:56:00,28.7,25.3,30.10,NNE,33,0.0,2.0,87,0.00,,,0.00,Wunderground v.1.15,2013-02-26 04:56:00,